Change the Weather History Date:

Monday, January 27, 2014

  Actual Average Record
Temperature  
Mean Temperature 22 °F -  
Max Temperature 26 °F 5 °F 28 °F (2001)
Min Temperature 19 °F -1 °F -27 °F (2006)
Degree Days  
Heating Degree Days 42    
Moisture  
Dew Point 21 °F    
Average Humidity 94    
Maximum Humidity 100    
Minimum Humidity 86    
Precipitation  
Precipitation 0.00 in - - ()
Sea Level Pressure  
Sea Level Pressure 29.85 in    
Wind  
Wind Speed 5 mph (ENE)    
Max Wind Speed 18 mph    
Max Gust Speed 22 mph    
Visibility 10 miles    
Events      
Averages and records for this station are not official NWS values.
T = Trace of Precipitation, MM = Missing Value Source: NWS Daily Summary

Daily Weather History Graph

Daily Weather History Graph

Search for Another Location

Airport or City:

Trip Planner

Search our weather history database for the weather conditions in past years. The results will help you decide how hot, cold, wet, or windy it might be!

Date:

Astronomy

Jan. 27, 2014 Rise Set
Actual Time 9:25 AM AKST 4:38 PM AKST
Civil Twilight 8:32 AM AKST 5:31 PM AKST
Nautical Twilight 7:37 AM AKST 6:26 PM AKST
Astronomical Twilight 6:45 AM AKST 7:18 PM AKST
Moon 6:34 AM AKST (1/27) 1:16 PM AKST (1/27)
Length of Visible Light 8h 58m
Length of Day
7h 12m
Waning Crescent, 13% of the Moon is Illuminated
Jan 27
Waning Crescent
Jan 30
New
Feb 6
First Quarter
Feb 14
Full
Feb 22
Last Quarter

Hourly Weather History & Observations

Time (AKST) Temp. Windchill Dew Point Humidity Pressure Visibility Wind Dir Wind Speed Gust Speed Precip Events Conditions
12:16 AM 21.2 °F - 21.2 °F 100% 30.00 in 10.0 mi Calm Calm - N/A   Clear
12:36 AM 23.0 °F - 23.0 °F 100% 30.00 in 10.0 mi Calm Calm - N/A   Clear
12:56 AM 24.8 °F - 21.2 °F 86% 29.99 in 10.0 mi Calm Calm - N/A   Clear
1:16 AM 21.2 °F - 21.2 °F 100% 29.99 in 10.0 mi Calm Calm - N/A   Clear
1:36 AM 23.0 °F - 23.0 °F 100% 29.99 in 10.0 mi Calm Calm - N/A   Clear
1:56 AM 21.2 °F - 21.2 °F 100% 29.98 in 10.0 mi Calm Calm - N/A   Clear
2:16 AM 23.0 °F - 21.2 °F 93% 29.97 in 10.0 mi Calm Calm - N/A   Clear
2:36 AM 23.0 °F - 21.2 °F 93% 29.96 in 10.0 mi Calm Calm - N/A   Clear
2:56 AM 21.2 °F - 19.4 °F 93% 29.96 in 10.0 mi Calm Calm - N/A   Clear
3:16 AM 21.2 °F - 21.2 °F 100% 29.95 in 10.0 mi Calm Calm - N/A   Clear
3:36 AM 21.2 °F - 19.4 °F 93% 29.94 in 10.0 mi Calm Calm - N/A   Clear
3:56 AM 21.2 °F - 19.4 °F 93% 29.93 in 10.0 mi Calm Calm - N/A   Clear
4:16 AM 23.0 °F 18.4 °F 21.2 °F 93% 29.93 in 10.0 mi NE 3.5 mph - N/A   Clear
4:36 AM 24.8 °F 20.5 °F 24.8 °F 100% 29.93 in 10.0 mi East 3.5 mph - N/A   Clear
4:56 AM 23.0 °F 15.8 °F 23.0 °F 100% 29.92 in 10.0 mi East 5.8 mph - N/A   Clear
5:16 AM 24.8 °F 16.9 °F 23.0 °F 93% 29.91 in 10.0 mi East 6.9 mph - N/A   Clear
5:36 AM 24.8 °F 16.9 °F 23.0 °F 93% 29.90 in 10.0 mi East 6.9 mph - N/A   Clear
5:56 AM 24.8 °F 16.9 °F 23.0 °F 93% 29.90 in 10.0 mi East 6.9 mph - N/A   Clear
6:16 AM 24.8 °F 17.9 °F 21.2 °F 86% 29.89 in 10.0 mi ENE 5.8 mph - N/A   Clear
6:36 AM 21.2 °F 12.6 °F 21.2 °F 100% 29.88 in 10.0 mi ENE 6.9 mph - N/A   Clear
6:56 AM 23.0 °F 14.7 °F 21.2 °F 93% 29.87 in 10.0 mi ENE 6.9 mph - N/A   Clear
7:16 AM 23.0 °F 13.1 °F 23.0 °F 100% 29.86 in 10.0 mi ENE 9.2 mph - N/A   Clear
7:36 AM 23.0 °F 14.7 °F 21.2 °F 93% 29.86 in 10.0 mi ENE 6.9 mph - N/A   Clear
7:56 AM 21.2 °F 14.9 °F 19.4 °F 93% 29.86 in 10.0 mi ENE 4.6 mph - N/A   Clear
8:16 AM 21.2 °F 11.7 °F 19.4 °F 93% 29.85 in 10.0 mi ENE 8.1 mph - N/A   Clear
8:36 AM 24.8 °F 16.1 °F 24.8 °F 100% 29.85 in 10.0 mi NE 8.1 mph - N/A   Clear
8:56 AM 21.2 °F 10.9 °F 19.4 °F 93% 29.85 in 10.0 mi NE 9.2 mph - N/A   Clear
9:16 AM 21.2 °F 10.1 °F 19.4 °F 93% 29.84 in 10.0 mi NE 10.4 mph - N/A   Clear
9:36 AM 21.2 °F 10.9 °F 21.2 °F 100% 29.84 in 10.0 mi NE 9.2 mph - N/A   Clear
9:56 AM 21.2 °F 11.7 °F 19.4 °F 93% 29.83 in 10.0 mi ENE 8.1 mph - N/A   Clear
10:16 AM 23.0 °F 13.1 °F 21.2 °F 93% 29.83 in 10.0 mi ENE 9.2 mph - N/A   Clear
10:36 AM 23.0 °F 13.1 °F 21.2 °F 93% 29.82 in 10.0 mi NE 9.2 mph - N/A   Clear
10:56 AM 23.0 °F 11.7 °F 21.2 °F 93% 29.82 in 10.0 mi NE 11.5 mph - N/A   Clear
11:16 AM 24.8 °F 13.4 °F 21.2 °F 86% 29.82 in 10.0 mi NE 12.7 mph - N/A   Clear
11:36 AM 24.8 °F 13.4 °F 21.2 °F 86% 29.81 in 10.0 mi NE 12.7 mph - N/A   Clear
11:56 AM 24.8 °F 16.1 °F 23.0 °F 93% 29.82 in 10.0 mi ENE 8.1 mph - N/A   Clear
12:16 PM 26.6 °F 16.8 °F 24.8 °F 93% 29.81 in 10.0 mi ENE 10.4 mph - N/A   Clear
12:36 PM 26.6 °F 17.5 °F 24.8 °F 93% 29.81 in 10.0 mi ENE 9.2 mph - N/A   Clear
12:56 PM 24.8 °F 14.0 °F 21.2 °F 86% 29.81 in 10.0 mi NE 11.5 mph - N/A   Clear
1:36 PM 24.8 °F 11.5 °F 23.0 °F 93% 29.79 in 10.0 mi NE 17.3 mph - N/A   Clear
1:56 PM 26.6 °F 15.2 °F 24.8 °F 93% 29.78 in 10.0 mi ENE 13.8 mph - N/A   Clear
2:36 PM 26.6 °F 13.8 °F 24.8 °F 93% 29.78 in 10.0 mi NE 17.3 mph 20.7 mph N/A   Clear
2:56 PM 26.6 °F 13.8 °F 24.8 °F 93% 29.78 in 10.0 mi NE 17.3 mph - N/A   Clear
3:36 PM 24.8 °F 11.1 °F 21.2 °F 86% 29.78 in 10.0 mi NE 18.4 mph - N/A   Clear
3:56 PM 24.8 °F 11.1 °F 21.2 °F 86% 29.79 in 10.0 mi NE 18.4 mph 21.9 mph N/A   Clear
4:16 PM 23.0 °F 11.1 °F 21.2 °F 93% 29.79 in 10.0 mi NE 12.7 mph - N/A   Clear
4:36 PM 21.2 °F 9.5 °F 19.4 °F 93% 29.79 in 10.0 mi NE 11.5 mph - N/A   Clear
4:56 PM 21.2 °F 10.9 °F 19.4 °F 93% 29.80 in 10.0 mi ENE 9.2 mph - N/A   Clear
5:16 PM 21.2 °F 8.3 °F 19.4 °F 93% 29.80 in 10.0 mi NE 13.8 mph - N/A   Clear
5:36 PM 21.2 °F 9.5 °F 19.4 °F 93% 29.79 in 10.0 mi ENE 11.5 mph - N/A   Partly Cloudy
5:56 PM 21.2 °F 10.9 °F 19.4 °F 93% 29.80 in 10.0 mi ENE 9.2 mph - N/A   Partly Cloudy
6:16 PM 21.2 °F 8.3 °F 19.4 °F 93% 29.80 in 10.0 mi NE 13.8 mph - N/A   Partly Cloudy
6:36 PM 21.2 °F 8.3 °F 19.4 °F 93% 29.81 in 10.0 mi NE 13.8 mph - N/A   Clear
6:56 PM 21.2 °F 10.1 °F 21.2 °F 100% 29.81 in 10.0 mi NE 10.4 mph - N/A   Clear
7:16 PM 21.2 °F 10.1 °F 21.2 °F 100% 29.81 in 10.0 mi ENE 10.4 mph - N/A   Clear
7:36 PM 21.2 °F 14.9 °F 19.4 °F 93% 29.82 in 10.0 mi ESE 4.6 mph - N/A   Clear
7:56 PM 19.4 °F 12.8 °F 19.4 °F 100% 29.82 in 10.0 mi SE 4.6 mph - N/A   Clear
8:16 PM 19.4 °F - 17.6 °F 93% 29.82 in 10.0 mi Calm Calm - N/A   Scattered Clouds
8:36 PM 19.4 °F 12.8 °F 17.6 °F 93% 29.81 in 10.0 mi North 4.6 mph - N/A   Mostly Cloudy
8:56 PM 19.4 °F - 19.4 °F 100% 29.81 in 10.0 mi Calm Calm - N/A   Mostly Cloudy
9:16 PM 19.4 °F 11.5 °F 19.4 °F 100% 29.81 in 10.0 mi NE 5.8 mph - N/A   Scattered Clouds
9:36 PM 21.2 °F 10.1 °F 21.2 °F 100% 29.81 in 10.0 mi NE 10.4 mph - N/A   Partly Cloudy
9:56 PM 24.8 °F 14.0 °F 23.0 °F 93% 29.81 in 10.0 mi NE 11.5 mph - N/A   Mostly Cloudy
10:16 PM 24.8 °F 17.9 °F 23.0 °F 93% 29.81 in 10.0 mi NE 5.8 mph - N/A   Overcast
10:36 PM 24.8 °F 14.6 °F 23.0 °F 93% 29.81 in 10.0 mi NE 10.4 mph - N/A   Overcast
10:56 PM 24.8 °F 16.9 °F 23.0 °F 93% 29.82 in 10.0 mi NE 6.9 mph - N/A   Overcast
11:16 PM 24.8 °F 17.9 °F 23.0 °F 93% 29.81 in 10.0 mi NE 5.8 mph - N/A   Mostly Cloudy
11:36 PM 24.8 °F - 21.2 °F 86% 29.81 in 10.0 mi Calm Calm - N/A   Scattered Clouds
11:56 PM 23.0 °F - 19.4 °F 86% 29.82 in 10.0 mi Calm Calm - N/A   Mostly Cloudy